Weather History for Savanna, IL

Change the Weather History Date:

Wednesday, October 31, 2012

  Actual Average (KCWI) Record (KCWI)
Temperature  
Mean Temperature 40 °F -  
Max Temperature 51 °F 60 °F 84 °F (1950)
Min Temperature 29 °F 41 °F 23 °F (1993)
Degree Days  
Heating Degree Days 25    
Moisture  
Dew Point 22 °F    
Average Humidity 54    
Maximum Humidity 77    
Minimum Humidity 24    
Precipitation  
Precipitation 0.00 in - - ()
Sea Level Pressure  
Sea Level Pressure 29.91 in    
Wind  
Wind Speed 8 mph (NW)    
Max Wind Speed 14 mph    
Max Gust Speed 20 mph    
Visibility 10 miles    
Events      
Averages and records for this station are not official NWS values.
T = Trace of Precipitation, MM = Missing Value Source: NWS Daily Summary

Daily Weather History Graph

Daily Weather History Graph

Search for Another Location

Airport:

Trip Planner

Search our weather history database for the weather conditions in past years. The results will help you decide how hot, cold, wet, or windy it might be!

Date:

Astronomy

Oct. 31, 2012 Rise Set
Actual Time 7:32 AM CDT 5:54 PM CDT
Civil Twilight 7:03 AM CDT 6:23 PM CDT
Nautical Twilight 6:30 AM CDT 6:56 PM CDT
Astronomical Twilight 5:58 AM CDT 7:29 PM CDT
Moon 7:04 PM CDT (10/31) 9:15 AM CDT (10/31)
Length of Visible Light 11h 20m
Length of Day
10h 22m
Full, 97% of the Moon is Illuminated
Oct 31
Full
Nov 6
Last Quarter
Nov 13
New
Nov 20
First Quarter
Nov 28
Full

Hourly Weather History & Observations

Time (CDT) Temp. Windchill Dew Point Humidity Pressure Visibility Wind Dir Wind Speed Gust Speed Precip Events Conditions
12:15 AM 37.8 °F 31.8 °F 23.7 °F 57% 29.90 in 10.0 mi NNW 8.1 mph - N/A   Clear
12:35 AM 37.0 °F 30.4 °F 23.7 °F 59% 29.90 in 10.0 mi NNW 9.2 mph - N/A   Clear
12:55 AM 36.7 °F 30.5 °F 23.7 °F 59% 29.90 in 10.0 mi NNW 8.1 mph - N/A   Clear
1:15 AM 36.3 °F 29.5 °F 23.9 °F 61% 29.90 in 10.0 mi NNW 9.2 mph - N/A   Clear
1:35 AM 36.0 °F 29.0 °F 23.9 °F 62% 29.90 in 10.0 mi NNW 9.2 mph - N/A   Clear
1:55 AM 35.6 °F 28.0 °F 23.9 °F 62% 29.90 in 10.0 mi NNW 10.4 mph 16.1 mph N/A   Clear
2:15 AM 35.4 °F 26.8 °F 23.9 °F 63% 29.91 in 10.0 mi NNW 12.7 mph 16.1 mph N/A   Clear
2:35 AM 34.7 °F 29.6 °F 23.9 °F 65% 29.91 in 10.0 mi NNW 5.8 mph - N/A   Clear
2:55 AM 34.0 °F 27.2 °F 23.9 °F 67% 29.91 in 10.0 mi NNW 8.1 mph - N/A   Clear
3:15 AM 33.6 °F 27.5 °F 24.3 °F 69% 29.91 in 10.0 mi NNW 6.9 mph - N/A   Clear
3:35 AM 33.1 °F 25.5 °F 24.1 °F 70% 29.91 in 10.0 mi NNW 9.2 mph - N/A   Clear
3:55 AM 32.9 °F 25.9 °F 23.9 °F 69% 29.91 in 10.0 mi NNW 8.1 mph - N/A   Clear
4:15 AM 32.2 °F 26.7 °F 23.7 °F 71% 29.91 in 10.0 mi NNW 5.8 mph - N/A   Clear
4:35 AM 32.0 °F 25.6 °F 23.7 °F 71% 29.91 in 10.0 mi NNW 6.9 mph - N/A   Clear
4:55 AM 32.0 °F 24.8 °F 23.7 °F 71% 29.91 in 10.0 mi NNW 8.1 mph - N/A   Clear
5:15 AM 32.0 °F 24.8 °F 23.7 °F 71% 29.91 in 10.0 mi NNW 8.1 mph - N/A   Clear
5:35 AM 32.0 °F 24.8 °F 23.7 °F 71% 29.91 in 10.0 mi NNW 8.1 mph - N/A   Clear
5:55 AM 31.8 °F 23.9 °F 23.9 °F 73% 29.92 in 10.0 mi NNW 9.2 mph - N/A   Clear
6:15 AM 31.6 °F 24.4 °F 23.9 °F 73% 29.92 in 10.0 mi NW 8.1 mph - N/A   Clear
6:35 AM 30.9 °F 24.3 °F 23.5 °F 74% 29.92 in 10.0 mi NNW 6.9 mph - N/A   Clear
6:55 AM 30.9 °F 24.3 °F 23.7 °F 75% 29.92 in 10.0 mi NNW 6.9 mph - N/A   Clear
7:15 AM 30.6 °F 23.1 °F 23.5 °F 75% 29.92 in 10.0 mi NW 8.1 mph - N/A   Clear
7:35 AM 30.9 °F 25.2 °F 23.9 °F 75% 29.93 in 10.0 mi NNW 5.8 mph - N/A   Clear
7:55 AM 30.2 °F 22.6 °F 23.7 °F 77% 29.92 in 10.0 mi NNW 8.1 mph - N/A   Clear
8:15 AM 30.7 °F 24.9 °F 23.7 °F 75% 29.92 in 10.0 mi NNW 5.8 mph - N/A   Clear
8:35 AM 31.8 °F 23.3 °F 24.3 °F 74% 29.92 in 10.0 mi NW 10.4 mph - N/A   Clear
8:55 AM 33.1 °F 23.9 °F 24.4 °F 71% 29.93 in 10.0 mi NNW 12.7 mph - N/A   Clear
9:15 AM 33.8 °F 25.3 °F 24.6 °F 69% 29.93 in 10.0 mi NNW 11.5 mph - N/A   Clear
9:35 AM 35.2 °F 27.6 °F 25.2 °F 67% 29.93 in 10.0 mi NNW 10.4 mph - N/A   Clear
9:55 AM 36.5 °F 30.3 °F 25.3 °F 64% 29.93 in 10.0 mi NNW 8.1 mph - N/A   Clear
10:15 AM 37.9 °F 30.9 °F 25.7 °F 61% 29.93 in 10.0 mi NNW 10.4 mph - N/A   Clear
10:35 AM 37.8 °F 30.2 °F 25.9 °F 62% 29.93 in 10.0 mi NW 11.5 mph - N/A   Clear
10:55 AM 38.7 °F 32.9 °F 26.4 °F 61% 29.93 in 10.0 mi NW 8.1 mph - N/A   Clear
11:15 AM 40.1 °F 34.7 °F 27.1 °F 60% 29.93 in 10.0 mi NW 8.1 mph - N/A   Clear
11:35 AM 41.5 °F 35.4 °F 27.5 °F 57% 29.93 in 10.0 mi WNW 10.4 mph - N/A   Clear
11:55 AM 42.8 °F 37.0 °F 26.6 °F 53% 29.92 in 10.0 mi WNW 10.4 mph 17.3 mph N/A   Clear
12:15 PM 43.7 °F 37.3 °F 25.2 °F 48% 29.92 in 10.0 mi NW 12.7 mph - N/A   Clear
12:35 PM 45.0 °F 38.5 °F 22.1 °F 40% 29.91 in 10.0 mi NNW 13.8 mph 17.3 mph N/A   Clear
12:55 PM 45.5 °F 41.8 °F 25.2 °F 45% 29.91 in 10.0 mi West 6.9 mph - N/A   Clear
1:15 PM 47.7 °F - 21.6 °F 36% 29.90 in 10.0 mi NW 11.5 mph 18.4 mph N/A   Clear
1:35 PM 48.7 °F - 17.8 °F 29% 29.90 in 10.0 mi WNW 11.5 mph 18.4 mph N/A   Clear
1:55 PM 48.6 °F - 21.2 °F 34% 29.89 in 10.0 mi WNW 9.2 mph - N/A   Clear
2:15 PM 49.3 °F - 19.0 °F 30% 29.88 in 10.0 mi WNW 11.5 mph 17.3 mph N/A   Clear
2:55 PM 50.0 °F - 18.5 °F 29% 29.88 in 10.0 mi WNW 12.7 mph - N/A   Clear
3:15 PM 50.7 °F - 17.6 °F 27% 29.88 in 10.0 mi WNW 11.5 mph 16.1 mph N/A   Clear
3:35 PM 51.1 °F - 17.1 °F 26% 29.88 in 10.0 mi WNW 13.8 mph 18.4 mph N/A   Clear
3:55 PM 50.9 °F - 16.3 °F 25% 29.88 in 10.0 mi WNW 13.8 mph 19.6 mph N/A   Clear
4:15 PM 50.5 °F - 16.3 °F 26% 29.88 in 10.0 mi WNW 11.5 mph 17.3 mph N/A   Clear
4:35 PM 50.7 °F - 15.3 °F 24% 29.88 in 10.0 mi WNW 12.7 mph 16.1 mph N/A   Clear
4:55 PM 50.0 °F - 15.6 °F 25% 29.88 in 10.0 mi WNW 12.7 mph 16.1 mph N/A   Clear
5:15 PM 49.5 °F - 14.4 °F 25% 29.88 in 10.0 mi NW 11.5 mph - N/A   Clear
5:35 PM 48.6 °F - 14.5 °F 26% 29.89 in 10.0 mi NW 8.1 mph - N/A   Clear
5:55 PM 47.1 °F - 14.9 °F 28% 29.89 in 10.0 mi NW 10.4 mph - N/A   Clear
6:15 PM 46.0 °F 42.5 °F 16.2 °F 30% 29.90 in 10.0 mi WNW 6.9 mph - N/A   Clear
6:35 PM 45.3 °F 41.6 °F 18.5 °F 34% 29.91 in 10.0 mi WNW 6.9 mph - N/A   Clear
6:55 PM 44.6 °F 40.7 °F 18.5 °F 35% 29.91 in 10.0 mi WNW 6.9 mph - N/A   Clear
7:15 PM 44.2 °F 41.8 °F 18.9 °F 36% 29.91 in 10.0 mi WNW 4.6 mph - N/A   Clear
7:35 PM 43.3 °F 39.9 °F 18.5 °F 37% 29.92 in 10.0 mi WNW 5.8 mph - N/A   Clear
7:55 PM 42.8 °F 39.3 °F 18.3 °F 37% 29.92 in 10.0 mi WNW 5.8 mph - N/A   Clear
8:15 PM 41.9 °F 37.5 °F 19.0 °F 40% 29.91 in 10.0 mi WNW 6.9 mph - N/A   Clear
8:35 PM 41.5 °F 37.1 °F 20.5 °F 43% 29.91 in 10.0 mi WNW 6.9 mph - N/A   Clear
8:55 PM 41.2 °F 36.0 °F 20.5 °F 44% 29.91 in 10.0 mi WNW 8.1 mph - N/A   Clear
9:15 PM 41.0 °F 37.1 °F 19.4 °F 42% 29.91 in 10.0 mi WNW 5.8 mph - N/A   Clear
9:35 PM 35.6 °F - 20.3 °F 54% 29.91 in 10.0 mi Calm Calm - N/A   Clear
9:55 PM 35.6 °F - 20.1 °F 53% 29.91 in 10.0 mi Calm Calm - N/A   Clear
10:15 PM 36.0 °F - 20.3 °F 53% 29.92 in 10.0 mi Calm Calm - N/A   Clear
10:35 PM 35.6 °F - 20.8 °F 55% 29.92 in 10.0 mi Calm Calm - N/A   Clear
10:55 PM 33.1 °F 30.0 °F 20.3 °F 59% 29.92 in 10.0 mi WNW 3.5 mph - N/A   Clear
11:15 PM 29.7 °F - 21.9 °F 73% 29.92 in 10.0 mi Calm Calm - N/A   Clear
11:35 PM 29.1 °F - 21.7 °F 74% 29.91 in 10.0 mi Calm Calm - N/A   Clear
11:55 PM 32.7 °F - 21.7 °F 64% 29.91 in 10.0 mi Calm Calm - N/A   Clear